CALSPHERE 2

Last updated on Thu Sep 10 2026 00:03:41 GMT+0000 (Coordinated Universal Time)

1 00902U 64063E 26252.56817255 .00000058 00000+0 74444-4 0 9995 2 00902 90.2288 77.7811 0018145 348.5905 80.3849 13.52906052867675
UTC large
Height (km)
Speed (km/s)
/
Latitude / Longitude
Inclination (degrees)
Orbital Period (minutes)
Azimuth
Elevation
Range (km)
Doppler Factor

Next 0 passes for location: London (51.5072 / 0.1276)

No passes found over London.
CALSPHERE 2